COSMOS 1812

Last updated on Mon Nov 03 2025 00:02:16 GMT+0000 (Coordinated Universal Time)

1 17295U 87003A 25306.48150781 .00060769 00000+0 55405-3 0 9991 2 17295 82.4904 335.3259 0003650 168.2230 191.9116 15.67655791124332
UTC large
Height (km)
Speed (km/s)
/
Latitude / Longitude
Inclination (degrees)
Orbital Period (minutes)
Azimuth
Elevation
Range (km)
Doppler Factor

Next 0 passes for location: London (51.5072 / 0.1276)

Sorry there are no passes over London.